Other Surface Observations
Issued by NWS

Home | Current Version | Previous Version | Text Only | Print | Product List | Glossary On
Versions: 1 2 3 4 5 6 7 8 9 10 11 12 13 14 15 16 17 18 19 20 21 22 23 24 25 26 27 28 29 30 31 32 33 34 35 36 37 38 39 40 41 42 43 44 45 46 47 48 49 50
086
SXUS52 KTAE 240818
OSOTAE
OSOTAE
North Florida/South Alabama/Southwest Georgia Weather Roundup
National Weather Service Tallahassee Florida
400 AM EDT TUE MAY 24 2016

Note: "fair" indicates few or no clouds below 12,000 feet with no
significant weather and/or obstructions to visibility.

!FLZ017-115-028-034-025-240900
...North Florida...

CITY           SKY/WX    TMP DP  RH WIND       PRES   REMARKS
TALLAHASSEE    CLEAR     62  57  83 CALM      30.01S
APALACHICOLA   CLOUDY    61  59  93 CALM      30.01F
PERRY          CLEAR     62  60  94 CALM      30.02S
CROSS CITY       N/A     62  57  83 CALM      30.02R
JACKSONVILLE   CLEAR     61  59  93 CALM      30.03R
$$

!FLZ112-006-005-002-011-240900
...Florida Panhandle...

CITY           SKY/WX    TMP DP  RH WIND       PRES   REMARKS
MARIANNA       CLEAR     63  60  90 CALM      30.01S
BONIFAY        FAIR      59  58  96 CALM      30.03R
PANAMA CITY NW FAIR      60  56  86 CALM      30.01S
TYNDALL AFB    PTCLDY    63  61  92 CALM      30.02R
TYND DRONE APT FAIR      62  62  97 CALM      30.02R
DE FUNIAK SPR  FAIR      60  56  86 CALM      30.03S
EGLIN AFB      PTCLDY    63  57  81 CALM      30.01S
DESTIN         PTCLDY    68  64  87 CALM      30.01S
HURLBURT       CLEAR     62  58  87 N3        30.00S
CRESTVIEW      PTCLDY    56  54  93 CALM      30.03S
PENSACOLA      CLEAR     65  59  81 CALM      30.01S
$$

!ALZ063-066-240900
...South Alabama...

CITY           SKY/WX    TMP DP  RH WIND       PRES   REMARKS
DOTHAN         CLEAR     64  59  83 CALM      30.06R
OZARK CAIRNS   CLEAR     61  59  93 W3        30.03R
FT RUCKER HELI CLEAR     58  56  93 CALM      30.02R
RUCKER HELI 3  FAIR      61  59  93 NW2       30.04R
RUCKER HELI 2  NOT AVBL
FLORALA APT    CLEAR     58  56  93 CALM      30.04S
ANDALUSIA      CLEAR     64  59  83 CALM      30.03R
TROY           CLEAR     59  58  96 CALM      30.04R
EUFALA         FAIR      56  53  90 W3        30.01R
MOBILE         CLEAR     61  60  97 CALM      30.02F
$$

!GAZ120>161-240900
...Southwest and South Central Georgia...

CITY           SKY/WX    TMP DP  RH WIND       PRES   REMARKS
THOMASVILLE    FAIR      59  55  88 CALM      30.03S
BAINBRIDGE     CLEAR     61  59  94 CALM      30.02R
MOODY AFB      CLEAR     62  55  76 CALM      30.02R
VALDOSTA       CLEAR     58  57  97 CALM      30.02S
MOULTRIE       CLEAR     59  55  88 CALM      30.03S
BLAKELY        CLEAR     61  59  94 CALM      30.02R
ALBANY         CLEAR     60  55  83 CALM      30.04S
TIFTON         FAIR      58  56  92 CALM      30.03R
FITZGERALD     FAIR      60  59  96 CALM      30.05S
CORDELE        FAIR      62  60  92 CALM      30.03F
AMERICUS       FAIR      61  59  94 CALM      30.04R
HOMERVILLE     FAIR      63  55  77 SE5       30.04R
$$

!GMZ750-755-770-775-240900
...Coastal and Buoy Obs...

STATION/POSITION TIME  TEMP    WIND        PRES    VSBY  WAVE
                       AIR SEA DIR/SP/G                  HT/PER
                 (UTC) (F)     (DEG/KT/KT) (MB)    (MI)  (FT/S)
KEATON BEACH     0800   67      90/  8/  9 1016.3R
CEDAR KEY        0800   74      70/  5/  5 1016.6F
C TOWER          0800   74     320/  5/  6 1016.6F
APALACHICOLA BUO 0750   76 77  360/  2/  4 1016.2F         1
PANAMA CITY BUOY 0750   77 80  140/  6/  8 1016.5F         1
MOBILE BUOY      0800   77 77  130/ 10/ 12 1015.8S
ORANGE BCH AL BU 0750   76 79  170/  6/  8 1015.8F         1
$$




USA.gov is the U.S. government's official web portal to all federal, state and local government web resources and services.